SCP
0 0 0 0 0 0 -0 0 0 0 0 0 0 0 0 0 0 0 0 0 0 0 0 0 0 0 0 0 0 0 0 0 0 0 0 0 0 0 0 0 0 0 0 0 0 0 0 0 0
0 0 0 0 0 0 0 0 0 0 0 0 0 0 0 0 0 0 0 0 0 0 0 0 0 0 0 0 0 0 0 0 0 0 0 0 0 0 0 0 0 0 0 0 0 0 0 0 0
0 0 0 0 0 0 0 0 0 0 0 0 0 0 0 0 0 0 0 0 0 0 0 0 0 0 0 0 0 0 0 0 0 0 0 0 0 0 0 0 0 0 0 0 0 0 0 0 0
0 0 0 0 0 0 0 0 0 0 0 0 0 0 0 0 0 0 0 0 0 0 0 0 0 0 0 0 0 0 0 0 0 0 0 0 0 0 0 0 0 0 0 0 0 0 0 0 0
0 0 0 0 0 0 0 0 0 0 0 0 0 0 0 0 0 0 0 0 0 0 0 0 0 0 0 0 0 0 0 0 0 0 0 0 0 0 0 0 0 0 0 0 0 0 0 0 0
0 0 0 0 0 0 0 0 0 0 0 0 0 0 0 0 0 0 0 0 0 0 0 0 0 0 0 0 0 0 0 0 0 0 0 0 0 0 0 0 0 0 0 0 0 0 0 0 0
0 0 0 0 0 0 0 0 0 0 0 0 0 0 0 0 0 0 0 0 0 0 0 0 0 0 0 0 0 0 0 0 0 0 0 0 0 0 0 0 0 0 0 0 0 0 0 0 0
0 0 0 0 0 0 0 0 0 0 0 0 0 0 0 0 0 0 0 0 0 0 0 0 0 0 0 0 0 0 0 0 0 0 0 0 0 0 0 0 0 0 0 0 0 0 0 0 0
0 0 0 0 0 0 0 0 0 0 0 0 0 0 0 0 0 0 0 0 0 0 0 0 0 0 0 0 0 0 0 0 0 0 0 0 0 0 0 0 0 0 0 0 0 0 0 0 0
0 0 0 0 0 0 0 0 0 0 0 0 0 0 0 0 0 0 0 0 0 0 0 0 0 0 0 0 0 0 0 0 0 0 0 0 0 0 0 0 0 0 0 0 0 0 0 0 0
0 0 0 0 0 0 0 0 0 0 0 0 0 0 0 0 0 0 0 0 0 0 0 0 0 0 0 0 0 0 0 0 0 0 0 0 0 0 0 0 0 0 0 0 0 0 0 0 0
0 0 0 0 0 0 0 0 0 0 0 0 0 0 0 0 0 0 0 0 0 0 0 0 0 0 0 0 0 0 0 0 0 0 0 0 0 0 0 0 0 0 0 0 0 0 0 0 0
0 0 0 0 0 0 0 0 0 0 0 0 0 0 0 0 0 0 0 0 0 0 0 0 0 0 0 0 0 0 0 0 0 0 0 0 0 0 0 0 0 0 0 0 0 0 0 0 0
0 0 0 0 0 0 0 0 0 0 0 0 0 0 0 0 0 0 0 0 0 0 0 0 0 0 0 0 0 0 0 0 0 0 0 0 0 0 0 0 0 0 0 0 0 0 0 0 0
0 0 0 0 0 0 0 0 0 0 0 0 0 0 0 0 0 0 0 0 0 0 0 0 0 0 0 0 0 0 0 0 0 0 0 0 0 0 0 0 0 0 0 0 0 0 0 0 0
0 0 0 0 0 0 0 0 0 0 0 0 0 0 0 0 0 0 0 0 0 0 0 0 0 0 0 0 0 0 0 0 0 0 0 0 0 0 0 0 0 0 0 0 0 0 0 0 0
0 0 0 0 0 0 0 0 0 0 0 0 0 0 0 0 0 0 0 0 0 0 0 0 0 0 0 0 0 0 0 0 0 0 0 0 0 0 0 0 0 0 0 0 0 0 0 0 0
0 0 0 0 0 0 0 0 0 0 0 0 0 0 0 0 0 0 0 0 0 0 0 0 0 0 0 0 0 0 0 0 0 0 0 0 0 0 0 0 0 0 0 0 0 0 0 0 0
0 0 0 0 0 0 0 0 0 0 0 0 0 0 0 0 0 0 0 0 0 0 0 0 0 0 0 0 0 0 0 0 0 0 0 0 0 0 0 0 0 0 0 0 0 0 0 0 0
0 0 0 0 0 0 0 0 0 0 0 0 0 0 0 0 0 0 0 0 0 0 0 0 0 0 0 0 0 0 0 0 0 0 0 0 0 0 0 0 0 0 0 0 0 0 0 0 0
0 0 0 0 0 0 0 0 0 0 0 0 0 0 0 0 0 0 0 0 0 0 0 0 0 0 0 0 0 0 0 0 0 0 0 0 0 0 0 0 0 0 0 0 0 0 0 0 0
0 0 0 0 0 0 0 0 0 0 0 0 0 0 0 0 0 0 0 0 0 0 0 0 0 0 0 0 0 0 0 0 0 0 0 0 0 0 0 0 0 0 0 0 0 0 0 0 0
0 0 0 0 0 0 0 0 0 0 0 0 0 0 0 0 0 0 0 0 0 0 0 0 0 0 0 0 0 0 0 0 0 0 0 0 0 0 0 0 0 0 0 0 0 0 0 0 0
0 0 0 0 0 0 0 0 0 0 0 0 0 0 0 0 0 0 0 0 0 0 0 0 0 0 0 0 0 0 0 0 0 0 0 0 0 0 0 0 0 0 0 0 0 0 0 0 0
0 0 0 0 0 0 0 0 0 0 0 0 0 0 0 0 0 0 0 0 0 0 0 1 1 1 0 0 0 0 0 0 0 0 0 0 0 0 0 0 0 0 0 0 0 0 0 0 0
0 0 0 0 0 0 0 0 0 0 0 0 0 0 0 0 0 0 0 0 0 0 0 1 1 1 1 1 0 0 0 0 0 0 0 0 0 0 0 0 0 0 0 0 0 0 0 0 0
0 0 0 0 0 0 0 0 0 0 0 0 0 0 0 0 0 0 0 0 0 0 1 1 1 1 1 1 1 0 0 0 0 0 0 0 0 0 0 0 0 0 0 0 0 0 0 0 0
0 0 0 0 0 0 0 0 0 0 0 0 0 0 0 0 0 0 0 0 0 0 1 1 1 1 1 1 1 0 0 0 0 0 0 0 0 0 0 0 0 0 0 0 0 0 0 0 0
0 0 0 0 0 0 0 0 0 0 0 0 0 0 0 0 0 0 0 0 0 0 0 1 1 1 1 1 1 0 0 0 0 0 0 0 0 0 0 0 0 0 0 0 0 0 0 0 0
0 0 0 0 0 0 0 0 0 0 0 0 0 0 0 0 0 0 0 0 0 0 0 1 1 1 1 1 1 0 0 0 0 0 0 0 0 0 0 0 0 0 0 0 0 0 0 0 0
Wind_Speed
9 7 3 1 3 4 4 4 6 7 6 7 9 10 9 7 5 6 2 5 6 4 3 6 9 11 12 12 11 11 12 12 12 13 13 12 12 12 13 13 13 13 13 13 12 12 13 14 14
6 5 1 2 4 4 3 5 9 9 9 9 10 10 9 7 6 7 4 5 6 5 3 5 10 11 11 11 11 11 12 12 12 12 12 12 12 13 13 13 13 12 12 12 12 12 13 14 14
5 3 1 2 2 4 4 7 10 10 9 8 6 6 6 5 5 5 5 7 6 5 4 5 11 11 12 12 11 11 12 12 12 12 12 12 12 13 13 13 12 12 12 12 12 12 12 12 12
2 1 2 3 3 3 6 7 12 11 8 8 8 7 4 4 4 7 10 9 8 5 4 5 11 11 12 12 11 11 12 12 12 12 12 12 12 12 12 12 12 11 11 11 11 11 11 10 10
2 2 3 2 3 3 6 9 10 9 6 7 9 7 4 4 9 12 10 9 8 5 3 5 10 11 12 12 11 11 11 11 11 11 11 11 10 11 11 11 11 11 10 10 10 10 10 9 9
2 3 3 2 5 5 6 9 11 12 12 9 9 7 4 5 9 10 10 8 8 7 4 4 9 10 11 11 11 11 10 10 11 10 10 10 9 9 10 11 11 10 9 9 9 9 9 8 7
3 3 3 4 5 6 6 8 10 11 10 6 7 7 4 4 6 9 9 8 7 7 5 3 3 6 9 10 10 10 10 10 10 10 9 9 9 9 9 9 9 9 8 8 9 8 8 7 7
4 3 2 3 6 5 7 7 9 11 9 9 7 7 6 6 7 9 8 7 6 5 4 3 3 3 3 4 9 9 9 9 9 9 9 9 9 8 9 8 8 8 8 8 7 7 7 6 6
3 4 2 4 7 6 8 10 7 7 10 6 5 7 10 11 10 10 8 6 5 5 3 3 3 3 3 3 6 6 7 7 7 7 8 7 3 4 4 6 7 7 7 6 6 5 5 5 5
4 4 5 5 7 8 9 10 8 7 10 8 9 10 11 11 10 10 9 7 5 5 4 4 4 3 3 4 4 2 3 3 3 3 3 2 2 2 3 5 6 6 5 4 4 3 3 3 2
4 4 3 5 6 8 8 7 7 11 8 11 14 14 12 11 9 9 8 7 6 5 5 4 4 4 4 3 3 2 1 2 2 3 2 2 2 2 2 1 2 2 2 1 1 0 0 1 1
4 2 4 5 6 7 8 8 8 8 9 12 14 14 12 12 10 9 8 7 6 6 5 4 4 4 4 3 3 2 2 2 2 2 2 2 2 2 1 1 0 0 0 1 0 0 0 1 1
5 3 3 4 6 7 10 9 10 9 12 14 15 13 12 11 9 7 8 7 7 6 5 5 5 5 4 3 2 3 2 2 2 2 2 3 2 2 1 1 1 1 1 1 1 1 1 1 1
3 4 3 3 6 9 12 9 8 10 13 14 14 11 11 11 9 8 8 7 6 6 6 5 5 4 4 3 3 3 2 2 2 2 2 2 2 2 2 1 1 1 1 1 1 1 1 1 1
3 3 3 1 4 6 10 7 7 12 13 13 13 12 11 10 9 9 9 8 7 6 6 5 5 4 4 3 3 3 2 2 2 1 2 2 3 3 2 2 1 1 1 1 2 1 1 1 1
3 3 1 2 3 4 8 6 7 12 13 12 11 12 10 9 9 9 10 9 8 7 6 5 6 5 3 3 3 2 2 2 2 1 2 2 2 3 2 2 1 1 1 1 1 1 1 1 1
2 1 2 2 2 4 5 5 8 10 12 11 11 10 10 9 9 9 10 10 9 8 7 5 5 5 4 3 2 2 2 2 1 1 1 2 2 2 2 1 0 1 1 1 1 1 1 0 1
2 2 2 3 2 4 4 5 9 10 11 11 10 10 10 11 10 10 10 10 9 7 7 6 5 4 3 2 2 1 1 1 1 1 1 2 2 2 2 1 0 1 1 1 1 1 0 0 0
3 2 1 3 3 3 5 6 9 9 9 9 9 9 10 10 9 9 10 10 9 7 7 6 5 4 3 2 2 1 1 1 1 1 2 2 2 2 2 1 1 1 1 0 0 1 1 1 1
1 1 1 1 1 4 4 4 7 9 11 12 12 11 11 9 9 9 9 10 9 8 7 6 6 5 4 3 2 2 2 1 1 1 1 2 2 2 2 2 1 1 1 1 1 1 1 1 1
1 3 3 2 1 2 4 1 3 5 6 8 11 11 11 13 13 11 11 10 10 9 9 8 6 6 5 4 2 1 1 1 1 1 0 1 2 2 2 2 2 1 1 1 0 1 1 0 1
4 6 6 5 4 1 3 1 5 4 5 8 9 10 12 12 11 11 11 11 11 10 9 7 7 5 5 4 4 4 3 2 2 2 1 1 1 2 2 1 2 2 1 1 1 1 1 1 1
5 4 4 3 4 2 2 2 6 2 5 9 10 12 12 11 12 12 12 12 11 10 9 7 7 6 5 4 5 4 3 2 2 1 1 1 1 1 1 1 1 1 1 1 1 1 1 1 1
4 5 5 5 5 2 2 3 5 5 8 9 10 11 12 12 11 11 11 9 8 9 8 8 7 6 5 5 5 5 4 3 2 2 2 1 1 1 1 1 1 2 1 2 2 1 1 1 1
4 6 4 5 4 3 2 2 7 7 7 10 12 12 11 12 11 10 10 10 9 10 9 8 8 7 6 6 5 5 5 4 4 3 3 2 1 1 1 1 1 1 2 2 1 1 1 1 1
4 8 8 5 3 3 2 3 7 4 4 6 9 10 9 10 11 11 12 11 11 10 10 9 9 7 7 6 5 4 4 3 3 3 3 3 2 2 2 2 2 2 2 1 1 1 1 0 0
3 2 7 8 2 1 3 3 5 1 2 5 8 9 10 11 11 11 10 10 10 10 10 10 9 7 7 6 5 4 4 3 3 3 2 2 2 2 2 2 2 2 2 1 1 1 1 0 0
5 6 6 6 5 1 3 3 4 4 5 6 8 9 9 9 8 9 9 9 8 8 8 7 8 8 7 6 6 5 4 4 3 3 2 2 2 2 1 1 2 2 1 1 1 1 1 0 0
2 2 5 5 6 6 2 6 5 7 7 7 8 8 9 10 10 9 8 8 8 7 7 7 7 7 6 6 6 4 4 4 3 3 3 3 2 2 2 2 2 2 1 1 1 1 0 0 1
3 4 6 5 3 4 4 7 4 5 6 6 7 7 7 8 8 8 8 7 7 7 7 8 8 7 7 7 5 5 4 4 3 3 3 3 2 2 2 2 2 2 1 1 1 1 1 1 1
Wind_Direction
168 172 168 129 52 52 79 96 101 85 67 62 72 76 76 63 89 124 178 136 121 121 104 104 104 105 104 101 99 97 96 97 97 99 101 102 104 107 113 118 119 119 120 121 123 124 125 126 127
165 174 159 57 75 78 77 98 96 100 119 108 83 80 74 70 85 112 130 132 123 117 102 106 108 107 107 105 103 102 102 101 101 100 101 103 104 107 114 118 119 119 119 120 124 123 125 128 130
175 183 108 74 89 125 120 115 112 107 104 94 85 68 71 93 102 123 145 135 116 105 97 110 111 110 111 108 106 106 105 104 102 103 104 104 105 107 112 117 118 119 119 120 123 124 128 133 135
150 93 50 77 106 140 132 133 119 110 86 78 90 72 64 87 111 131 135 130 120 112 104 110 113 113 112 110 109 107 107 106 104 105 106 105 106 108 112 116 119 119 121 121 123 126 128 136 140
112 87 62 62 107 107 116 124 116 108 92 91 93 92 71 62 109 127 130 131 127 121 112 115 117 115 114 113 112 110 109 109 108 107 108 108 110 113 115 116 118 119 122 127 129 129 132 136 146
77 84 87 103 103 102 109 113 105 101 108 107 101 99 85 110 120 132 134 131 130 129 122 120 124 118 114 114 114 114 112 111 111 111 110 110 112 116 121 122 123 125 127 131 134 134 135 136 144
118 109 135 130 110 103 118 116 112 120 122 122 121 100 109 131 136 134 131 131 126 127 121 113 120 119 119 116 115 115 114 111 110 111 110 113 115 118 125 127 128 128 131 133 135 137 142 141 137
157 112 105 111 113 119 127 111 124 128 117 125 121 125 153 165 139 121 115 117 118 117 119 118 114 112 109 113 114 114 114 113 108 109 115 118 119 120 123 127 132 132 132 132 136 141 146 146 142
131 92 140 152 137 134 123 108 105 105 115 119 102 124 148 145 126 114 109 106 109 113 118 127 125 121 119 123 120 112 111 110 107 106 114 113 104 106 119 134 135 137 142 144 144 150 154 156 153
116 128 188 171 149 141 131 127 124 103 107 105 105 112 127 128 122 122 124 125 124 126 133 132 126 125 123 123 111 100 101 92 88 88 96 93 100 114 125 132 144 144 147 151 156 171 169 167 148
127 151 149 130 141 134 127 126 117 118 123 142 141 139 136 131 128 130 134 138 141 139 130 124 126 119 113 107 112 96 82 80 73 78 91 91 86 90 93 97 115 121 142 131 109 351 163 150 158
99 101 118 142 137 129 130 124 113 124 147 147 142 141 137 136 139 143 143 138 136 131 129 128 120 105 102 105 110 110 102 95 89 84 91 93 89 87 95 96 87 79 68 89 35 51 85 130 146
99 97 91 123 114 118 108 112 113 124 136 138 136 135 138 142 145 148 143 134 129 128 131 128 116 110 104 97 102 108 111 111 108 96 94 109 113 111 108 95 74 66 102 125 121 86 96 135 153
153 142 124 112 103 113 113 111 107 137 140 141 142 145 148 150 149 141 139 136 135 134 136 132 120 117 110 105 100 106 117 112 102 101 105 107 113 115 115 96 77 59 84 130 124 115 111 133 144
110 111 82 91 101 122 109 94 131 149 144 145 151 154 154 155 151 148 149 146 142 137 134 135 132 121 118 115 111 112 119 115 105 114 107 109 111 113 112 99 79 72 83 91 89 71 68 74 112
71 78 115 254 125 139 109 140 161 156 150 154 159 161 156 155 155 154 151 148 147 144 142 150 141 128 122 117 111 111 114 120 123 119 112 116 112 113 104 97 92 75 69 69 84 81 61 29 38
38 137 214 266 178 140 112 158 171 166 158 161 165 162 158 158 160 161 157 155 155 154 151 151 137 139 140 126 112 112 118 125 140 124 120 129 123 115 112 120 124 58 61 53 81 72 99 55 344
231 201 204 222 205 134 136 172 170 174 166 165 166 163 164 168 174 169 161 159 158 156 152 146 142 149 144 119 88 73 80 106 140 153 153 154 138 129 123 131 116 75 74 47 50 74 54 137 268
176 170 234 237 192 140 173 176 178 176 169 170 173 173 172 177 176 167 163 161 156 155 151 150 149 160 147 130 132 132 155 169 172 196 181 175 165 148 137 138 119 98 115 156 91 100 55 355 18
125 112 235 332 94 128 161 191 180 177 183 181 178 180 179 173 170 172 167 166 164 165 165 162 163 167 170 169 168 170 167 191 199 207 177 182 177 174 159 155 163 136 123 76 59 94 77 331 30
214 188 195 191 60 68 113 345 213 201 196 187 179 177 180 179 176 174 170 172 168 170 172 171 173 173 177 170 145 117 78 49 44 52 216 221 192 179 161 156 161 158 145 155 172 137 135 248 308
226 213 187 172 129 224 132 204 270 208 200 194 185 178 183 183 176 173 173 174 176 178 173 167 169 173 178 165 154 157 159 175 203 201 205 228 190 185 174 159 163 172 162 174 221 169 169 158 271
211 188 163 160 122 75 37 107 283 206 197 202 188 182 183 182 177 179 179 179 178 176 172 169 166 175 180 173 172 168 174 190 195 184 183 205 227 218 196 173 167 179 182 191 223 251 181 172 185
156 76 56 59 77 59 234 142 269 227 206 197 189 182 180 179 178 180 181 174 174 172 171 170 168 178 180 178 177 174 181 182 176 188 191 212 232 249 241 175 175 185 190 198 215 227 223 230 210
85 91 47 14 22 263 247 153 246 239 206 190 182 182 179 177 176 174 172 171 174 174 176 174 174 183 184 181 185 186 188 188 191 196 191 191 202 226 244 212 192 191 201 206 200 197 230 242 235
198 139 151 171 196 264 329 228 258 243 207 180 170 174 171 174 175 176 178 175 177 178 177 175 179 184 185 183 188 188 187 188 194 192 186 192 202 214 213 202 197 199 198 207 182 205 246 253 261
159 159 160 132 135 125 278 283 310 330 161 162 161 165 176 179 176 177 177 175 175 178 181 180 178 181 184 185 183 186 186 187 191 191 189 194 206 207 207 197 185 198 183 169 155 182 249 149 331
151 151 96 109 138 207 288 261 233 225 196 178 174 176 180 175 171 173 172 172 172 175 175 171 174 180 182 185 191 194 195 192 185 179 192 200 212 209 199 198 172 182 176 162 151 189 247 129 271
29 78 106 119 147 150 203 262 223 197 191 182 180 174 172 172 167 164 166 170 169 167 169 172 179 179 181 188 192 193 189 185 182 191 206 208 209 196 192 193 173 184 194 189 171 208 203 170 292
167 172 144 143 200 157 160 257 263 186 179 163 169 163 157 156 156 156 159 159 159 164 171 179 182 182 189 190 185 190 186 177 184 200 211 205 203 201 197 178 170 183 190 194 186 209 240 204 241